AddedLatest Added eBooks:

  1. 2019-12-03Contemporary Oral Medicine: A Comprehensive Approach to Clinical Practice
  2. 2019-12-03Atlas of Cardiac Catheterization for Congenital Heart Disease
  3. 2019-12-03Cybercryptography: Applicable Cryptography for Cyberspace Security
  4. 2019-12-03Implants in the Aesthetic Zone: A Guide for Treatment of the Partially Edentulous Patient
  5. 2019-12-03NCH DreamPlan Plus 4.37 Beta
  6. 2019-12-03Segregation by Design: Conversations and Calls for Action in St. Louis (The Urban Book Series)
  7. 2019-12-03Dynamics of Civil Structures, Volume 2: Proceedings of the 36th IMAC, A Conference and Exposition on Structural Dynamics 2018 (Conference Proceedings of the Society for Experimental Mechanics Series)
  8. 2019-12-03Composition Secrets 2.0 Tips to Draw Better
  9. 2019-12-03Person Centered Approach to Recovery in Medicine: Insights from Psychosomatic Medicine and Consultation-Liaison Psychiatry (Integrating Psychiatry and Primary Care)
  10. 2019-12-03School Leadership and Educational Change in Singapore (Springer Texts in Education)
  11. 2019-12-03Climate Change-Resilient Agriculture and Agroforestry: Ecosystem Services and Sustainability (Climate Change Management)
  12. 2019-12-03Inflammatory Bowel Disease Nursing Manual
  13. 2019-12-03Yoga for a Total Mind-Body Transformation
  14. 2019-12-03Sports Technology and Innovation: Assessing Cultural and Social Factors
  15. 2019-12-03Prehypertension and Cardiometabolic Syndrome (Updates in Hypertension and Cardiovascular Protection)
  16. 2019-12-03A New Generation Material Graphene: Applications in Water Technology - Removed
  17. 2019-12-03Concurrent Aerobic and Strength Training: Scientific Basics and Practical Applications
  18. 2019-12-037 Day Yoga Routine Increase Energy & Balance Your Chakras
  19. 2019-12-03FUE Hair Transplantation: A Minimally Invasive Approach
  20. 2019-12-03Craft Edge Sure Cuts A Lot Pro 5.025 Multilingual
  21. 2019-12-03Communicating the Environment to Save the Planet: A Journey into Eco-Communication
  22. 2019-12-03Viability and Sustainability of Small-Scale Fisheries in Latin America and The Caribbean (MARE Publication Series)
  23. 2019-12-03The Geology of Germany: A Process-Oriented Approach (Regional Geology Reviews)
  24. 2019-12-03Oral Rehabilitation for Compromised and Elderly Patients - Removed
  25. 2019-12-03Landside Accessibility of Airports: Analysis, Modelling, Planning, and Design
  26. 2019-12-03Museum Technology and Architecture (Building Research: Design, Construction and Technologies)
  27. 2019-12-03Leading by Coaching: How to deliver impactful change one conversation at a time
  28. 2019-12-03Population Health Monitoring: Climbing the Information Pyramid
  29. 2019-12-03Smart Technology Trends in Industrial and Business Management (EAI/Springer Innovations in Communication and Computing)
  30. 2019-12-03Neonatal Cranial Ultrasonography Ed 3
  31. 2019-12-03IObit Software Updater Pro 2.3.0.2839 Multilingual
  32. 2019-12-03New Cities and Community Extensions in Egypt and the Middle East: Visions and Challenges
  33. 2019-12-03Sustainable Solutions for Food Security: Combating Climate Change by Adaptation
  34. 2019-12-03Batch HXS to Word Converter 2019.11.1128.2420
  35. 2019-12-03Coviability of Social and Ecological Systems: Reconnecting Mankind to the Biosphere in an Era of Global Change: Vol. 2: Coviability Questioned by a Diversity of Situations
  36. 2019-12-03Congenital Heart Disease: The Nursing Care Handbook
  37. 2019-12-03The Archaean Geology of the Kaapvaal Craton, Southern Africa (Regional Geology Reviews)
  38. 2019-12-03Batch Word to PDF Converter 2019.11.1128.2164
  39. 2019-12-03Intuitionistic Fuzziness and Other Intelligent Theories and Their Applications (Studies in Computational Intelligence)
  40. 2019-12-03Endoscopic Biopsy Interpretation: A Practical Guide
  41. 2019-12-03University Initiatives in Climate Change Mitigation and Adaptation
  42. 2019-12-03Contemporary Technologies in Education: Maximizing Student Engagement, Motivation, and Learning
  43. 2019-12-03Mansor Sapari - King Master & Webinar related RTM
  44. 2019-12-03Power-Up Podcasting 2.0 with Pat Flynn
  45. 2019-12-03On Page SEO 2019 with Kyle Roof
  46. 2019-12-03Cadence Sigrity 3D-EM v19.00.000 (x64)
  47. 2019-12-03Daossoft PDF Password Rescuer 7.0.1.1
  48. 2019-12-03Ad Astra 2019 1080p AMZN WEB-DL DDP5.1 H264-NTG
  49. 2019-12-03Adobe Bridge 2020 v10.0.1.1 Multilanguage
  50. 2019-12-03Red Handed 2019 HDRip AC3 x264-CMRG
  51. 2019-12-03Adobe InCopy 2020 v15.0.1 macOS
  52. 2019-12-03Ring Ring 2019 HDRip AC3 x264-CMRG
  53. 2019-12-03The Reliant 2019 HDRip AC3 x264-CMRG
  54. 2019-12-03The Shasta Triangle 2019 HDRip AC3 x264-CMRG
  55. 2019-12-03Ad Astra 2019 1080p AMZN WEB-DL DDP5 1 H 264-NTG
  56. 2019-12-03Ad Astra 2019 720p AMZN WEB-DL DDP5 1 H 264-NTG
  57. 2019-12-03Blood Bags 2018 HDRip AC3 x264-CMRG
  58. 2019-12-03Blood Bags 2019 HDRip XviD AC3-EVO
  59. 2019-12-03Rambo Last Blood 2019 1080p AMZN WEB-DL DDP5 1 H 264-NTG - Removed
  60. 2019-12-03Rambo Last Blood 2019 720p AMZN WEB-DL DDP5 1 H 264-NTG - Removed
  61. 2019-12-03Red Handed 2019 HDRip AC3 x264-CMRG
  62. 2019-12-03The Reliant 2019 HDRip AC3 x264-CMRG
  63. 2019-12-03Adobe InCopy 2020 v15.0.1.209 Multilingual
  64. 2019-12-03Out Of Liberty 2019 HDRip XviD AC3-EVO
  65. 2019-12-03Before You Know It 2019 HDRip AC3 x264-CMRG
  66. 2019-12-03Ad Astra 2019 HDRip XviD AC3-EVO
  67. 2019-12-03A Kid Like Jake 2019 BRRip XviD AC3-EVO
  68. 2019-12-03One Must Fall 2019 HDRip XviD AC3-EVO
  69. 2019-12-03Red Handed 2019 HDRip XviD AC3-EVO
  70. 2019-12-03Adobe InDesign 2020 v15.0.1 macOS
  71. 2019-12-03The Shasta Triangle 2019 HDRip XviD AC3-EVO
  72. 2019-12-03The Reliant 2019 HDRip XviD AC3-EVO
  73. 2019-12-03Outpost Earth 2019 1080p WEBRip x264-YTS
  74. 2019-12-03It Chapter Two 2019 BluRay 1080p x265- Joy
  75. 2019-12-03Adobe InDesign 2020 v15.0.1.209 Multilingual
  76. 2019-12-03Badland 2019 BRRip XviD AC3-EVO
  77. 2019-12-03Before You Know It 2019 720p WEB-DL x264 AAC-ETRG
  78. 2019-12-03A Kid Like Jake 2018 iNTERNAL BDRip x264-ARiES
  79. 2019-12-03Badland 2019 720p BluRay 800MB x264-GalaxyRG
  80. 2019-12-03Blood Bags 2019 HDRip XviD AC3-EVO
  81. 2019-12-03Necropolis Legion 2019 720p WEB H264-SECRECY
  82. 2019-12-03Out Of Liberty 2019 1080p WEB-DL H264 AC3-EVO
  83. 2019-12-03Ad Astra 2019 1080p WEB-DL x264 AAC-ETRG
  84. 2019-12-03Badland 2019 1080p BluRay H264 AAC-RARBG
  85. 2019-12-03Lucky Day 2019 1080p BluRay x264-YTS - Removed
  86. 2019-12-03Out Of Liberty 2019 1080p WEBRip x264-RARBG
  87. 2019-12-03Playmobil The Movie 2019 BDRip x264-EiDER
  88. 2019-12-03Rambo Last Blood 2019 720p BluRay x264-GalaxyRG - Removed
  89. 2019-12-03Ring Ring 2019 1080p WEB-DL H264 AC3-EVO
  90. 2019-12-03The Fanatic 2019 BRRip AC3 x264-CMRG
  91. 2019-12-03The Nightingale 2018 1080p BluRay DD5 1 x264-GalaxyRG - Removed
  92. 2019-12-03The Shasta Triangle 2019 1080p WEB-DL H264 AC3-EVO
  93. 2019-12-03Them That Follow 2019 1080p BluRay DD5 1 x264-GalaxyRG
  94. 2019-12-03Tower Of Silence 2019 1080p WEB-DL H264 AC3-EVO
  95. 2019-12-03Ad Astra 2019 720p WEB-DL x264 AAC-ETRG
  96. 2019-12-03Before You Know It 2019 1080p WEBRip x264-RARBG
  97. 2019-12-03A Rainy Day in New York 2019 1080p BluRay DD5 1 x264-GalaxyRG
  98. 2019-12-03Badland 2019 BDRip x264-ROVERS
  99. 2019-12-03Charlie says (2019) ITA-ENG Multi BDRip 1080p X264-BaMax71-iDN

More eBooks ...

44239 pages, 4423876 eBooks in total, list all pages->

Search free ebooks in ebookee.com!
Back to Top